KF6ILA Weather Reports


Display with metric or nautical units.
time (UTC)temp
F
wind
direction
speed
MPH
gust
MPH
rain 1hr
in
rain 24hr
in
rain mn
in
humidity
%
barometer
mb
20260505041324 42 258 13.0 24.0 0.00 0.01 0.00 98 1011.3
20260505040827 42 271 10.0 25.0 0.00 0.01 0.00 98 1011.1
20260505040331 42 251 17.0 28.0 0.00 0.01 0.00 97 1011.3
20260505035834 42 276 11.0 28.0 0.00 0.01 0.00 97 1011.2
20260505035337 42 273 13.0 28.0 0.00 0.01 0.00 97 1011.2
20260505034839 42 281 12.0 28.0 0.00 0.01 0.00 97 1011.1
20260505034343 42 268 12.0 28.0 0.00 0.01 0.00 97 1011.1
20260505033846 42 253 16.0 28.0 0.00 0.01 0.00 97 1011.0
20260505033348 43 270 11.0 24.0 0.00 0.01 0.00 97 1010.9
20260505032355 43 256 13.0 31.0 0.00 0.01 0.00 97 1010.8
20260505031857 43 265 21.0 32.0 0.00 0.01 0.00 96 1010.7
20260505031400 43 253 16.0 28.0 0.00 0.01 0.00 96 1010.6
20260505030903 43 266 13.0 20.0 0.00 0.01 0.00 96 1010.8
20260505030406 43 264 10.0 23.0 0.00 0.01 0.00 96 1010.7
20260505025909 43 261 13.0 24.0 0.00 0.01 0.00 96 1010.7
20260505025412 43 281 13.0 28.0 0.00 0.01 0.00 95 1010.6
20260505024915 43 278 11.0 28.0 0.00 0.01 0.00 95 1010.5
20260505024418 43 276 11.0 28.0 0.00 0.01 0.00 94 1010.6
20260505023922 43 278 16.0 28.0 0.00 0.01 0.00 94 1010.4
20260505023424 43 267 12.0 27.0 0.00 0.01 0.00 94 1010.5
20260505022927 43 278 16.0 27.0 0.00 0.01 0.00 93 1010.2
20260505022431 43 256 13.0 32.0 0.00 0.01 0.00 93 1010.6
20260505021933 44 255 17.0 33.0 0.00 0.01 0.00 93 1010.5
20260505021437 44 255 24.0 33.0 0.00 0.01 0.00 92 1010.4
20260505020940 44 259 13.0 25.0 0.00 0.01 0.00 91 1010.5
20260505020443 44 265 14.0 29.0 0.00 0.01 0.00 91 1010.4
20260505015946 44 262 14.0 29.0 0.00 0.01 0.00 91 1010.2
20260505015449 44 253 17.0 24.0 0.00 0.01 0.00 90 1010.2
20260505014952 45 260 15.0 22.0 0.00 0.01 0.00 89 1010.4
20260505014455 45 268 14.0 30.0 0.00 0.01 0.00 89 1010.4
20260505013958 45 268 17.0 29.0 0.00 0.01 0.00 89 1010.5
20260505013004 46 273 18.0 27.0 0.00 0.01 0.00 88 1010.5
20260505012506 46 277 19.0 30.0 0.00 0.01 0.00 87 1010.4
20260505012009 46 280 15.0 31.0 0.00 0.01 0.00 86 1010.5
20260505011512 46 288 19.0 31.0 0.00 0.01 0.00 86 1010.4
20260505011046 47 287 20.0 30.0 0.00 0.01 0.00 85 1010.5
20260505011015 47 287 20.0 30.0 0.00 0.01 0.00 85 1010.5
20260505010518 47 277 16.0 28.0 0.00 0.01 0.00 85 1010.5
20260505010021 47 283 17.0 27.0 0.00 0.01 0.00 84 1010.7
20260505005524 48 280 16.0 30.0 0.00 0.01 0.00 84 1010.8
20260505005027 48 286 18.0 30.0 0.00 0.01 0.00 83 1010.7
20260505004629 48 285 18.0 32.0 0.00 0.01 0.00 82 1010.6
20260505004530 48 285 18.0 32.0 0.00 0.01 0.00 82 1010.6
20260505004108 48 286 18.0 37.0 0.00 0.01 0.00 83 1010.6
20260505004033 48 286 18.0 37.0 0.00 0.01 0.00 83 1010.6
20260505003630 48 258 27.0 37.0 0.00 0.01 0.00 82 1010.6
20260505003537 48 258 27.0 37.0 0.00 0.01 0.00 82 1010.6
20260505003040 48 265 18.0 32.0 0.00 0.01 0.00 82 1010.7
20260505002543 49 265 19.0 30.0 0.00 0.01 0.00 81 1011.0
20260505002046 49 253 13.0 32.0 0.00 0.01 0.00 81 1011.0
20260505001051 48 254 20.0 32.0 0.00 0.01 0.00 82 1010.8
20260505000555 48 271 13.0 30.0 0.00 0.01 0.00 82 1010.8
20260505000058 49 265 19.0 30.0 0.00 0.01 0.00 80 1010.8
20260504235713 49 264 14.0 31.0 0.00 0.01 0.00 80 1010.8
20260504235601 49 264 14.0 31.0 0.00 0.01 0.00 80 1010.8
20260504235104 49 252 23.0 31.0 0.00 0.01 0.00 80 1010.8
20260504234738 49 257 18.0 32.0 0.00 0.01 0.00 79 1010.7
20260504234607 49 257 18.0 32.0 0.00 0.01 0.00 79 1010.7
20260504234225 49 251 20.0 34.0 0.00 0.01 0.00 79 1010.9
20260504234109 49 251 20.0 34.0 0.00 0.01 0.00 79 1010.9
20260504233613 49 246 23.0 34.0 0.00 0.01 0.00 78 1010.8
20260504233116 49 251 19.0 30.0 0.00 0.01 0.00 78 1010.9
20260504232738 49 275 14.0 30.0 0.00 0.01 0.00 78 1010.8
20260504232619 49 275 14.0 30.0 0.00 0.01 0.00 78 1010.8
20260504232122 49 258 16.0 28.0 0.00 0.01 0.00 77 1010.7
20260504231128 50 280 15.0 26.0 0.00 0.01 0.00 76 1010.9
20260504230734 50 265 11.0 30.0 0.00 0.01 0.00 78 1011.0
20260504230631 50 265 11.0 30.0 0.00 0.01 0.00 78 1011.0
20260504225739 50 247 17.0 29.0 0.00 0.01 0.00 75 1010.9
20260504225637 50 247 17.0 29.0 0.00 0.01 0.00 75 1010.9
20260504225140 51 274 16.0 27.0 0.00 0.01 0.00 76 1010.9
20260504224643 50 263 15.0 29.0 0.00 0.01 0.00 77 1011.0
20260504224222 40 262 14.0 31.0 0.00 0.01 0.00 75 1011.0
20260504224146 0 262 14.0 31.0 0.00 0.01 0.00 75 1011.0
20260504223649 51 269 18.0 31.0 0.00 0.01 0.00 73 1010.8
20260504222655 51 282 18.0 27.0 0.00 0.01 0.00 75 1011.1
20260504222158 51 283 18.0 31.0 0.00 0.01 0.00 73 1011.1
20260504221928 51 254 20.0 31.0 0.00 0.01 0.00 73 1011.2
20260504221701 51 254 20.0 31.0 0.00 0.01 0.00 73 1011.2
20260504221204 51 279 17.0 31.0 0.00 0.01 0.00 76 1011.1
20260504220707 50 283 17.0 31.0 0.00 0.01 0.00 76 1011.2
20260504220348 50 274 17.0 31.0 0.00 0.01 0.00 75 1011.2
20260504220210 50 274 17.0 31.0 0.00 0.01 0.00 75 1011.2
20260504215712 51 247 22.0 33.0 0.00 0.01 0.00 75 1011.4
20260504215344 51 250 25.0 33.0 0.00 0.01 0.00 74 1011.3
20260504215216 51 250 25.0 33.0 0.00 0.01 0.00 74 1011.3
20260504214719 51 265 15.0 31.0 0.00 0.01 0.00 76 1011.5
20260504214222 51 264 14.0 32.0 0.00 0.01 0.00 77 1011.4
20260504213725 51 253 21.0 32.0 0.00 0.01 0.00 77 1011.5
20260504213342 51 257 18.0 30.0 0.00 0.01 0.00 77 1011.6
20260504213228 51 257 18.0 30.0 0.00 0.01 0.00 77 1011.6
20260504212730 50 269 14.0 27.0 0.00 0.01 0.00 79 1011.8
20260504212234 50 282 15.0 26.0 0.00 0.01 0.00 81 1011.7
20260504211737 49 269 12.0 26.0 0.00 0.01 0.00 81 1011.9
20260504211239 50 280 13.0 26.0 0.00 0.01 0.00 80 1011.9
20260504210245 50 277 14.0 23.0 0.00 0.01 0.00 81 1012.0
20260504205820 50 264 11.0 29.0 0.00 0.01 0.00 83 1012.0
20260504205749 50 264 11.0 29.0 0.00 0.01 0.00 83 1012.0
20260504204754 49 286 15.0 26.0 0.00 0.01 0.00 85 1011.8
20260504204257 49 275 16.0 29.0 0.00 0.01 0.00 84 1011.7
20260504203801 50 282 18.0 29.0 0.00 0.01 0.00 82 1012.0
20260504203303 50 277 14.0 28.0 0.00 0.01 0.00 84 1011.9
20260504202859 49 269 14.0 26.0 0.00 0.01 0.00 85 1011.9
20260504202806 49 269 14.0 26.0 0.00 0.01 0.00 85 1011.9
20260504202310 49 258 16.0 26.0 0.00 0.01 0.00 85 1012.0
20260504201813 49 266 17.0 25.0 0.00 0.01 0.00 85 1012.0
20260504201453 48 289 14.0 24.0 0.00 0.01 0.00 88 1012.0
20260504201351 48 289 14.0 24.0 0.00 0.01 0.00 88 1012.0
20260504201316 48 289 14.0 24.0 0.00 0.01 0.00 88 1012.0
20260504200914 48 290 11.0 21.0 0.00 0.01 0.00 90 1012.0
20260504200819 48 290 11.0 21.0 0.00 0.01 0.00 90 1012.0
20260504195825 47 267 12.0 19.0 0.00 0.01 0.00 91 1012.1
20260504195328 47 276 12.0 21.0 0.00 0.01 0.00 92 1012.1
20260504194831 46 275 14.0 24.0 0.00 0.01 0.00 92 1012.1
20260504194334 46 272 16.0 24.0 0.00 0.01 0.00 92 1012.1
20260504193837 46 252 13.0 20.0 0.00 0.01 0.00 93 1012.1
20260504193340 46 276 11.0 22.0 0.00 0.01 0.00 94 1012.3
20260504192843 46 262 13.0 22.0 0.00 0.01 0.00 94 1012.0
20260504192346 46 286 12.0 21.0 0.00 0.01 0.00 94 1011.8
20260504191849 46 275 8.0 25.0 0.00 0.01 0.00 94 1012.1
20260504191352 46 272 10.0 29.0 0.00 0.01 0.00 94 1012.1
20260504190943 45 262 21.0 29.0 0.00 0.01 0.00 94 1012.1
20260504190855 45 262 21.0 29.0 0.00 0.01 0.00 94 1012.1
20260504190358 45 263 20.0 27.0 0.00 0.01 0.00 94 1012.1
20260504185901 45 261 17.0 26.0 0.00 0.01 0.00 94 1012.3
20260504185404 45 270 10.0 27.0 0.00 0.01 0.00 94 1012.3
20260504184907 46 269 18.0 27.0 0.00 0.01 0.00 94 1012.3
20260504184552 46 262 19.0 28.0 0.00 0.01 0.00 95 1013.0
20260504184410 46 262 19.0 28.0 0.00 0.01 0.00 95 1013.0
20260504183913 45 256 12.0 28.0 0.00 0.01 0.00 96 1013.0
20260504183416 45 267 19.0 28.0 0.00 0.01 0.00 96 1013.0
20260504182919 44 269 21.0 27.0 0.00 0.01 0.00 97 1013.0
20260504182422 44 274 16.0 29.0 0.00 0.01 0.00 97 1013.0
20260504181925 44 275 18.0 29.0 0.00 0.01 0.00 97 1012.8
20260504181428 44 272 18.0 28.0 0.00 0.01 0.00 97 1012.9
20260504180931 44 263 18.0 28.0 0.00 0.01 0.00 97 1012.8
20260504180434 44 268 16.0 27.0 0.00 0.01 0.00 97 1012.4
20260504175937 44 271 17.0 30.0 0.00 0.01 0.00 97 1012.6
20260504175440 44 268 22.0 30.0 0.00 0.01 0.00 97 1012.4
20260504174446 44 265 21.0 28.0 0.00 0.01 0.00 98 1012.4
20260504173949 44 257 19.0 27.0 0.00 0.01 0.00 98 1012.3
20260504173452 43 278 19.0 27.0 0.00 0.01 0.00 98 1012.2
20260504173043 43 264 17.0 30.0 0.00 0.01 0.00 98 1012.2
20260504172955 43 264 17.0 30.0 0.00 0.01 0.00 98 1012.2
20260504172458 43 265 15.0 30.0 0.00 0.01 0.00 99 1012.0
20260504172001 43 260 15.0 30.0 0.00 0.01 0.00 99 1012.2
20260504171618 43 267 16.0 28.0 0.00 0.01 0.00 99 1011.9
20260504171504 43 267 16.0 28.0 0.00 0.01 0.00 99 1011.9
20260504170510 42 273 18.0 30.0 0.00 0.01 0.00 99 1011.4
20260504151119 41 269 17.0 32.0 0.00 0.01 0.00 100 1010.7
20260504150125 41 280 23.0 29.0 0.00 0.01 0.00 100 1010.6
20260504141155 40 276 18.0 34.0 0.00 0.01 0.01 100 1010.8
20260504140658 40 273 24.0 34.0 0.00 0.01 0.01 100 1010.8
20260504140201 40 276 24.0 35.0 0.00 0.01 0.01 100 1010.4
20260504130806 41 273 14.0 28.0 0.00 0.01 0.01 100 1009.9
20260504130734 41 273 14.0 28.0 0.00 0.01 0.01 100 1009.9
20260504130237 41 271 14.0 31.0 0.00 0.01 0.01 100 1010.0
20260504120313 42 265 24.0 40.0 0.01 0.01 0.01 100 1009.6
20260504110349 42 275 26.0 39.0 0.00 0.00 0.00 99 1009.3
20260504100425 43 267 22.0 33.0 0.00 0.00 0.00 99 1009.5
20260504081531 42 266 27.0 41.0 0.00 0.00 0.00 96 1010.2
20260504081034 42 270 27.0 41.0 0.00 0.00 0.00 97 1010.2
20260504080537 42 270 26.0 40.0 0.00 0.00 0.00 97 1010.3
20260504070115 42 278 26.0 37.0 0.00 0.00 0.00 96 1010.1
20260504060152 42 261 23.0 34.0 0.00 0.00 0.00 97 1009.5
20260504050724 43 271 26.0 36.0 0.00 0.00 0.00 97 1010.4
20260504050228 43 268 24.0 36.0 0.00 0.00 0.00 98 1010.0
20260504045731 43 270 24.0 36.0 0.00 0.00 0.00 98 1009.8